TimePDT,TemperatureF,Dew PointF,Humidity,Sea Level PressureIn,VisibilityMPH,Wind Direction,Wind SpeedMPH,Gust SpeedMPH,PrecipitationIn,Events,Conditions,WindDirDegrees,DateUTC
12:53 AM,69.1,39.0,33,29.87,10.0,SSW,8.1,-,N/A,,Clear,210,2013-07-15 07:53:00
1:53 AM,63.0,43.0,48,29.89,10.0,Calm,Calm,-,N/A,,Clear,0,2013-07-15 08:53:00
2:53 AM,57.9,42.1,56,29.90,10.0,Calm,Calm,-,N/A,,Clear,0,2013-07-15 09:53:00
3:53 AM,52.0,43.0,71,29.91,10.0,ESE,3.5,-,N/A,,Clear,120,2013-07-15 10:53:00
4:53 AM,54.0,42.1,64,29.93,10.0,SSW,3.5,-,N/A,,Clear,200,2013-07-15 11:53:00
5:53 AM,52.0,42.1,69,29.94,10.0,ESE,3.5,-,N/A,,Clear,120,2013-07-15 12:53:00
6:53 AM,66.9,43.0,42,29.94,10.0,Calm,Calm,-,N/A,,Clear,0,2013-07-15 13:53:00
7:53 AM,71.1,42.1,35,29.96,10.0,WNW,4.6,-,N/A,,Clear,300,2013-07-15 14:53:00
8:53 AM,73.9,43.0,33,29.96,10.0,Variable,3.5,-,N/A,,Clear,0,2013-07-15 15:53:00
9:53 AM,79.0,42.1,27,29.95,10.0,NE,9.2,-,N/A,,Clear,50,2013-07-15 16:53:00
10:53 AM,81.0,43.0,26,29.94,10.0,NNE,11.5,-,N/A,,Clear,20,2013-07-15 17:53:00
11:53 AM,84.0,41.0,22,29.93,10.0,NNE,11.5,-,N/A,,Clear,20,2013-07-15 18:53:00
12:53 PM,86.0,39.9,20,29.92,10.0,NE,10.4,-,N/A,,Clear,40,2013-07-15 19:53:00
1:53 PM,88.0,39.9,18,29.90,10.0,NNE,12.7,-,N/A,,Clear,30,2013-07-15 20:53:00
2:53 PM,88.0,39.9,18,29.89,10.0,ENE,11.5,-,N/A,,Clear,60,2013-07-15 21:53:00
3:53 PM,88.0,39.0,18,29.87,10.0,NNW,9.2,-,N/A,,Clear,340,2013-07-15 22:53:00
4:53 PM,89.1,39.0,17,29.85,10.0,North,11.5,19.6,N/A,,Clear,10,2013-07-15 23:53:00
5:53 PM,88.0,39.0,18,29.84,10.0,NNE,12.7,-,N/A,,Clear,20,2013-07-16 00:53:00
6:53 PM,88.0,37.9,17,29.82,10.0,North,10.4,-,N/A,,Clear,10,2013-07-16 01:53:00
7:53 PM,84.9,37.0,18,29.82,10.0,North,5.8,-,N/A,,Clear,360,2013-07-16 02:53:00
8:53 PM,75.0,37.9,26,29.83,10.0,NNE,3.5,-,N/A,,Clear,30,2013-07-16 03:53:00
9:53 PM,68.0,39.0,35,29.85,10.0,East,3.5,-,N/A,,Clear,80,2013-07-16 04:53:00
10:53 PM,64.9,41.0,42,29.85,10.0,SSW,6.9,-,N/A,,Clear,200,2013-07-16 05:53:00
11:53 PM,63.0,41.0,45,29.85,10.0,Calm,Calm,-,N/A,,Clear,0,2013-07-16 06:53:00